Change the Weather History Date:

Saturday, October 5, 2013

  Actual Average Record
Temperature  
Mean Temperature 53 °F -  
Max Temperature 61 °F 73 °F 96 °F (1963)
Min Temperature 45 °F 48 °F 31 °F (1964)
Degree Days  
Heating Degree Days 12    
Growing Degree Days 3 (Base 50)    
Moisture  
Dew Point 35 °F    
Average Humidity 52    
Maximum Humidity 65    
Minimum Humidity 36    
Precipitation  
Precipitation 0.00 in - - ()
Sea Level Pressure  
Sea Level Pressure 29.98 in    
Wind  
Wind Speed 13 mph (West)    
Max Wind Speed 20 mph    
Max Gust Speed 25 mph    
Visibility 10 miles    
Events Rain    
Averages and records for this station are not official NWS values.
T = Trace of Precipitation, MM = Missing Value Source: NWS Daily Summary

Daily Weather History Graph

Daily Weather History Graph

Search for Another Location

Airport or City:

Trip Planner

Search our weather history database for the weather conditions in past years. The results will help you decide how hot, cold, wet, or windy it might be!

Date:

Astronomy

Oct. 05, 2013 Rise Set
Actual Time 7:22 AM CDT 6:58 PM CDT
Civil Twilight 6:55 AM CDT 7:25 PM CDT
Nautical Twilight 6:25 AM CDT 7:56 PM CDT
Astronomical Twilight 5:54 AM CDT 8:27 PM CDT
Moon 8:02 AM CDT (10/5) 7:19 PM CDT (10/5)
Length of Visible Light 12h 29m
Length of Day
11h 36m
New Moon, 1% of the Moon is Illuminated
Oct 5
New Moon
Oct 11
First Quarter
Oct 18
Full
Oct 26
Last Quarter
Nov 3
New

Hourly Weather History & Observations

Time (CDT) Temp. Windchill Dew Point Humidity Pressure Visibility Wind Dir Wind Speed Gust Speed Precip Events Conditions
12:53 AM 57.0 °F - 41.0 °F 55% 29.94 in 10.0 mi West 11.5 mph - N/A   Scattered Clouds
1:53 AM 54.0 °F - 39.0 °F 57% 29.95 in 10.0 mi NW 18.4 mph 25.3 mph 0.00 in Rain Light Rain
2:53 AM 52.0 °F - 37.0 °F 57% 29.96 in 10.0 mi NW 16.1 mph 25.3 mph 0.00 in   Overcast
3:53 AM 51.1 °F - 37.9 °F 61% 29.97 in 10.0 mi NW 11.5 mph - N/A   Overcast
4:53 AM 50.0 °F - 37.9 °F 63% 29.98 in 10.0 mi WNW 9.2 mph - N/A   Overcast
5:53 AM 48.9 °F - 32.0 °F 52% 29.98 in 10.0 mi NW 19.6 mph 25.3 mph N/A   Mostly Cloudy
6:53 AM 46.9 °F - 33.1 °F 59% 30.01 in 10.0 mi WNW 10.4 mph - N/A   Overcast
7:53 AM 45.0 °F 41.8 °F 34.0 °F 65% 30.02 in 10.0 mi West 5.8 mph - N/A   Clear
8:53 AM 48.0 °F - 34.0 °F 58% 30.02 in 10.0 mi WNW 9.2 mph - N/A   Overcast
9:53 AM 50.0 °F - 34.0 °F 54% 30.03 in 10.0 mi WNW 12.7 mph - N/A   Mostly Cloudy
10:53 AM 51.1 °F - 34.0 °F 52% 30.04 in 10.0 mi WNW 11.5 mph - N/A   Overcast
11:53 AM 51.1 °F - 34.0 °F 52% 30.04 in 10.0 mi West 12.7 mph - N/A   Overcast
12:53 PM 53.1 °F - 34.0 °F 48% 30.05 in 10.0 mi West 12.7 mph - N/A   Overcast
1:53 PM 55.9 °F - 34.0 °F 44% 30.01 in 10.0 mi West 15.0 mph 20.7 mph N/A   Overcast
2:53 PM 57.9 °F - 35.1 °F 42% 29.98 in 10.0 mi West 13.8 mph - N/A   Clear
3:53 PM 59.0 °F - 34.0 °F 39% 29.96 in 10.0 mi West 16.1 mph - N/A   Clear
4:53 PM 61.0 °F - 34.0 °F 36% 29.92 in 10.0 mi West 15.0 mph - N/A   Clear
5:53 PM 60.1 °F - 33.1 °F 36% 29.92 in 10.0 mi WSW 17.3 mph - N/A   Clear
6:53 PM 57.0 °F - 33.1 °F 40% 29.93 in 10.0 mi West 11.5 mph - N/A   Scattered Clouds
7:53 PM 55.0 °F - 34.0 °F 45% 29.95 in 10.0 mi West 12.7 mph - N/A   Clear
8:53 PM 48.9 °F - 34.0 °F 56% 29.96 in 10.0 mi West 5.8 mph - N/A   Clear
9:53 PM 46.9 °F - 35.1 °F 63% 29.96 in 10.0 mi SW 6.9 mph - N/A   Clear
10:53 PM 46.9 °F - 34.0 °F 61% 29.96 in 10.0 mi West 9.2 mph - N/A   Clear
11:53 PM 46.9 °F - 33.1 °F 59% 29.95 in 10.0 mi West 11.5 mph - N/A   Clear